WetterOnline ( https://www.wetteronline.at )

Wetter aktuell Ostende

Aktuelles Wetter: Koksijde (9m)

6-stündlich | Neueste Meldungen
Ortszeit Temperatur Wetter
Di, 27.09. 8:00 10.8° C wolkig
Di, 27.09. 2:00 12.6° C bewölkt
Mo, 26.09. 20:00 12.3° C leichter Regen
Mo, 26.09. 14:00 14.1° C bewölkt
Mo, 26.09. 8:00 11.8° C wolkig
Mo, 26.09. 2:00 11.1° C leicht bewölkt
So, 25.09. 20:00 13.5° C bedeckt
So, 25.09. 14:00 14.8° C bewölkt
Ortszeit Temperatur Wetter
Di, 27.09. 13:00 12.8° C bewölkt
Di, 27.09. 12:00 12.9° C leicht bewölkt
Di, 27.09. 11:00 12.3° C wolkig
Di, 27.09. 10:00 11.4° C wolkig
Di, 27.09. 9:00 11.1° C wolkig
Di, 27.09. 8:00 10.8° C wolkig
Di, 27.09. 7:00 10.9° C leichte Schauer
Ortszeit Relative Feuchte Sichtweite
Di, 27.09. 8:00 76% 7 km
Di, 27.09. 2:00 65% 20 km
Mo, 26.09. 20:00 77% 15 km
Mo, 26.09. 14:00 83% 9 km
Mo, 26.09. 8:00 84% 20 km
Mo, 26.09. 2:00 81% 20 km
So, 25.09. 20:00 72% 20 km
So, 25.09. 14:00 77% 18 km
Ortszeit Relative Feuchte Sichtweite
Di, 27.09. 13:00 64% 7 km
Di, 27.09. 12:00 64% 18 km
Di, 27.09. 11:00 65% 18 km
Di, 27.09. 10:00 68% 8 km
Di, 27.09. 9:00 67% 7 km
Di, 27.09. 8:00 76% 7 km
Di, 27.09. 7:00 71% 4.0 km
Ortszeit Niederschlagsmenge Niederschlagsart
Di, 27.09. 8:00 0.9 l/m2 in 12 Std. Schauer
Di, 27.09. 2:00 0.0 l/m2 in 6 Std. Regen
Mo, 26.09. 20:00 16 l/m2 in 12 Std. Regen
Mo, 26.09. 14:00 15 l/m2 in 6 Std. Regen
Mo, 26.09. 8:00 0.1 l/m2 in 12 Std. -
Mo, 26.09. 2:00 0.0 l/m2 in 6 Std. Regen
So, 25.09. 20:00 2 l/m2 in 12 Std. Regen
So, 25.09. 14:00 1 l/m2 in 6 Std. Regen
Ortszeit Niederschlagsmenge Niederschlagsart
Di, 27.09. 13:00 keine Meldung -
Di, 27.09. 12:00 keine Meldung -
Di, 27.09. 11:00 keine Meldung -
Di, 27.09. 10:00 keine Meldung -
Di, 27.09. 9:00 keine Meldung -
Di, 27.09. 8:00 keine Meldung -
Di, 27.09. 7:00 keine Meldung -
Ortszeit Stärke Spitze Richtung
km/h Bft. km/h Grad Sektor
Di, 27.09. 8:00 29 5 47 300° NW
Di, 27.09. 2:00 25 4 54 310° NW
Mo, 26.09. 20:00 29 5 47 320° NW
Mo, 26.09. 14:00 7 2 36 290° W
Mo, 26.09. 8:00 14 3 25 200° S
Mo, 26.09. 2:00 7 2 18 210° SW
So, 25.09. 20:00 7 2 29 280° W
So, 25.09. 14:00 22 4 40 350° N
Ortszeit Stärke Spitze Richtung
km/h Bft. km/h Grad Sektor
Di, 27.09. 13:00 32 5 43 280° W
Di, 27.09. 12:00 29 5 43 280° W
Di, 27.09. 11:00 25 4 43 290° W
Di, 27.09. 10:00 25 4 43 290° W
Di, 27.09. 9:00 29 5 43 310° NW
Di, 27.09. 8:00 29 5 47 300° NW
Di, 27.09. 7:00 22 4 40 290° W
Ortszeit Untergrenze Bedeckung Gattung
total tief tief mittel hoch
Di, 27.09. 8:00 540 m 7/8 7/8 Cu Ac -
Di, 27.09. 2:00 1170 m - 7/8 - - -
Mo, 26.09. 20:00 660 m - 7/8 - - -
Mo, 26.09. 14:00 780 m 7/8 7/8 Cu - -
Mo, 26.09. 8:00 840 m 7/8 5/8 Cu As -
Mo, 26.09. 2:00 1440 m - 3/8 - - -
So, 25.09. 20:00 1140 m - 8/8 - - -
So, 25.09. 14:00 2100 m - 7/8 - - -
Ortszeit Bedeckungsgrad in Achtel und Wolkenuntergrenze
Di, 27.09. 13:00 2(660m) 3(840m) 6(1800m)
Di, 27.09. 12:00 2(900m) 3(2100m)
Di, 27.09. 11:00 1(660m) 4(900m)
Di, 27.09. 10:00 2(660m) 4(900m)
Di, 27.09. 9:00 2(660m) 5(900m)
Di, 27.09. 8:00 3(540m) 5(750m)
Di, 27.09. 7:00 4(540m) 5(750m)
Ortszeit Luftdruck NN (hPa) Tendenz (hPa in 3 Std.)
Di, 27.09. 8:00 1000 0,0
Di, 27.09. 2:00 1000 - 0,4
Mo, 26.09. 20:00 1000 + 0,5
Mo, 26.09. 14:00 999 - 0,6
Mo, 26.09. 8:00 1003 - 4,0
Mo, 26.09. 2:00 1011 - 2,3
So, 25.09. 20:00 1015 - 0,8
So, 25.09. 14:00 1017 - 0,6
Ortszeit Luftdruck NN (hPa) Tendenz (hPa in 3 Std.)
Di, 27.09. 13:00 1001 - 0,2
Di, 27.09. 12:00 1001 + 0,4
Di, 27.09. 11:00 1001 + 0,8
Di, 27.09. 10:00 1001 + 0,9
Di, 27.09. 9:00 1001 + 0,5
Di, 27.09. 8:00 1000 0,0
Di, 27.09. 7:00 1000 - 0,5
Ortszeit Schneehöhe (cm)
Di, 27.09. 8:00 -
Di, 27.09. 2:00 -
Mo, 26.09. 20:00 -
Mo, 26.09. 14:00 -
Mo, 26.09. 8:00 -
Mo, 26.09. 2:00 -
So, 25.09. 20:00 -
So, 25.09. 14:00 -
Ortszeit Schneehöhe (cm)
Di, 27.09. 13:00 -
Di, 27.09. 12:00 -
Di, 27.09. 11:00 -
Di, 27.09. 10:00 -
Di, 27.09. 9:00 -
Di, 27.09. 8:00 -
Di, 27.09. 7:00 -
Link zu dieser Seite / Seite empfehlen

Das Wetter in ...